This is the latest recevied weather packets stored in our database for station/object K0QED. If no packets are shown the sender has not sent any weather packets the latest 10 day(s).
| Time | Temp. | Humidity | Pressure | Rain* | Wind** | Luminosity | Snow |
|---|---|---|---|---|---|---|---|
| 1788200584 | 25° C | 34% | 1028.4 hPa | 0 mm | - | 449 W/m² | - |
| 1788200280 | 25° C | 33% | 1028.5 hPa | 0 mm | - | 448 W/m² | - |
| 1788199974 | 25° C | 34% | 1028.5 hPa | 0 mm | - | 302 W/m² | - |
| 1788199669 | 24.44° C | 34% | 1028.4 hPa | 0 mm | - | 374 W/m² | - |
| 1788199364 | 23.89° C | 36% | 1028.4 hPa | 0 mm | - | 701 W/m² | - |
| 1788199063 | 23.89° C | 37% | 1028.6 hPa | 0 mm | - | 540 W/m² | - |
| 1788198760 | 23.89° C | 39% | 1028.5 hPa | 0 mm | - | 538 W/m² | - |
| 1788198455 | 23.89° C | 38% | 1028.7 hPa | 0 mm | - | 468 W/m² | - |
| 1788198151 | 23.33° C | 39% | 1028.6 hPa | 0 mm | - | 399 W/m² | - |
| 1788197850 | 22.78° C | 39% | 1028.7 hPa | 0 mm | - | 679 W/m² | - |
| 1788197550 | 22.22° C | 41% | 1028.7 hPa | 0 mm | - | 282 W/m² | - |
| 1788197245 | 22.22° C | 40% | 1029 hPa | 0 mm | - | 173 W/m² | - |
| 1788196941 | 22.22° C | 42% | 1028.7 hPa | 0 mm | - | 150 W/m² | - |
| 1788196635 | 22.22° C | 42% | 1028.9 hPa | 0 mm | - | 137 W/m² | - |
| 1788196332 | 22.78° C | 42% | 1029.2 hPa | 0 mm | - | 157 W/m² | - |
| 1788196028 | 22.78° C | 40% | 1028.9 hPa | 0 mm | - | 175 W/m² | - |
| 1788195725 | 22.78° C | 42% | 1028.9 hPa | 0 mm | - | 189 W/m² | - |
| 1788195421 | 22.78° C | 43% | 1028.6 hPa | 0 mm | - | 208 W/m² | - |
| 1788195117 | 22.78° C | 42% | 1028.7 hPa | 0 mm | - | 255 W/m² | - |
| 1788194812 | 23.33° C | 38% | 1028.7 hPa | 0 mm | - | 432 W/m² | - |
| 1788194508 | 22.78° C | 43% | 1028.6 hPa | 0 mm | - | 507 W/m² | - |
| 1788194203 | 22.78° C | 44% | 1028.5 hPa | 0 mm | - | 472 W/m² | - |
| 1788193899 | 22.22° C | 43% | 1028.7 hPa | 0 mm | - | 422 W/m² | - |
| 1788193598 | 22.22° C | 43% | 1028.7 hPa | 0 mm | - | 243 W/m² | - |
| 1788193296 | 21.67° C | 43% | 1029 hPa | 0 mm | - | 320 W/m² | - |
* Rain latest hour (hover to see other rain measurements)
** Current wind speed in m/s (hover to see current wind gust speed)